Location: Vancouver
(49.2500°N, 123.1330°W)
Time: 20:50:38
(UTC-07:00)

Daily predictions for brighter satellites

Satellite Brightness Start Highest point End
(mag) Time Altitude Azimuth Time Altitude Azimuth Time Altitude Azimuth
Cosmos 2266 Rocket 4.1 21:50:35 10° S 21:56:53 90° ENE 22:03:05 10° N
Cosmos 2315 Rocket 4.0 21:52:16 10° N 21:58:31 82° E 22:04:43 10° S
Cosmos 1939 Rocket 4.1 22:00:39 10° SSW 22:04:21 39° W 22:08:01 10° NNW
Cosmos 1707 Rocket 3.6 22:00:24 10° N 22:04:45 70° ENE 22:09:07 10° SSE
SPOT 1/Viking Rocket 3.6 22:01:36 10° SSE 22:06:44 73° ENE 22:11:54 10° NNW
Cosmos 1833 4.4 22:01:23 10° SSW 22:07:06 84° WNW 22:12:48 10° NNE
H-2A R/B 3.5 22:02:55 10° SSW 22:07:10 39° W 22:11:26 10° NNW
Cosmos 2333 Rocket 2.8 22:01:42 10° NNW 22:07:16 48° NE 22:12:49 10° SE
SL-16 R/B 3.8 22:02:46 10° NNW 22:07:25 25° NE 22:12:02 10° E
ATLAS 5 CENTAUR R/B 4.4 22:04:47 10° W 22:09:14 29° NNW 22:14:01 10° NE
Cosmos 1898 Rocket 4.1 22:05:10 10° SSE 22:09:53 36° ESE 22:14:38 10° NE
PSLV R/B 3.9 22:06:54 10° S 22:09:54 51° W 22:12:54 10° NNW
Cosmos 1455 3.8 22:07:29 10° NNE 22:10:29 21° ENE 22:13:28 10° ESE
Cosmos 1666 Rocket 3.9 22:08:40 10° SSE 22:12:54 48° E 22:17:12 10° NNE
USA 234 4.3 22:07:39 10° ENE 22:13:56 51° NNW 22:20:14 10° W
SPOT 5 3.6 22:13:53 10° S 22:18:23 51° W 22:23:11 10° NNW
USA 229 DEB 4.1 22:12:01 10° SW 22:18:57 75° NW 22:26:03 10° NE
USA 229 4.1 22:12:07 10° SW 22:19:04 75° NW 22:26:09 10° NE
COSMOS 2428 3.0 22:13:29 10° NNW 22:19:08 67° WSW 22:24:45 10° SSE
Nadezhda 1 Rocket 4.5 22:15:13 10° N 22:21:04 46° ENE 22:26:55 10° SSE
Cosmos 2297 Rocket 3.7 22:21:24 10° SE 22:24:57 17° E 22:28:30 10° ENE
Cosmos 2219 Rocket 2.2 22:21:16 10° NNW 22:26:54 78° ENE 22:32:19 11° SSE
Cosmos 1437 4.0 22:25:02 10° SSW 22:28:11 44° WNW 22:31:22 10° N
ARGOS 3.2 22:23:10 10° SSE 22:28:36 88° WSW 22:34:02 10° NNW
Cosmos 1726 2.2 22:24:52 10° NNW 22:28:40 81° W 22:32:26 10° S
NOSS 3-1 (A) 3.6 22:32:34 10° SSW 22:38:20 53° ESE 22:44:46 10° NE
Cosmos 1745 Rocket 4.2 22:32:28 10° SSE 22:38:29 54° E 22:44:27 10° NNE
CZ-4C R/B 3.0 22:35:43 12° SSE 22:38:52 74° ENE 22:42:22 10° N
ERBS 4.1 22:38:38 14° SE 22:39:22 15° SE 22:41:22 10° E
Cosmos 292 Rocket 3.9 22:38:41 10° NNW 22:43:28 72° WSW 22:47:50 12° SSE
NOSS 0 Rocket 4.0 22:37:34 10° NNW 22:43:46 88° WSW 22:49:19 13° SSE
USA 32 4.1 22:39:38 10° N 22:44:57 89° E 22:50:13 10° S
Cosmos 1980 3.7 22:40:24 10° NNW 22:46:06 80° ENE 22:51:01 14° SSE
Cosmos 1271 Rocket 2.8 22:43:08 10° NNW 22:46:58 75° W 22:50:33 12° S
Landsat 7 3.8 22:44:50 12° SSE 22:49:17 90° WNW 22:54:05 10° NNW
Meteor 1-4 Rocket 3.0 22:47:03 10° NNW 22:50:48 61° W 22:54:14 11° S
Cosmos 1346 4.0 22:49:27 17° SSE 22:51:15 33° E 22:54:02 10° NNE
Cosmos 2219 3.7 22:50:04 10° SW 22:55:48 67° WNW 23:01:33 10° NNE
Cosmos 1703 3.2 22:52:06 10° S 22:55:59 77° E 22:59:55 10° NNE
SL-14 R/B 3.8 22:52:25 10° SSW 22:56:21 61° WNW 23:00:21 10° N
Cosmos 2242 Rocket 4.1 22:52:56 10° NNW 22:57:21 59° W 23:01:45 10° S
Cosmos 2237 Rocket 2.2 22:52:54 10° NNW 22:58:40 90° ENE 23:03:21 16° SSE
Meteor 2-10 4.4 22:54:08 10° NNW 22:59:51 78° W 23:05:09 12° S
Iridium 2 3.7 22:57:23 12° S 23:00:54 84° E 23:04:47 10° N
ATLAS 2AS CENTAUR R/B 3.5 22:54:11 10° S 23:01:02 39° ESE 23:08:18 10° NE
Lacrosse 4 Rocket 2.3 22:58:12 10° NNW 23:02:26 44° NE 23:06:05 14° ESE
Cosmos 1862 Rocket 3.5 22:59:11 10° N 23:03:34 79° E 23:06:53 17° SSE
CZ-4C R/B 4.1 22:58:22 10° NW 23:04:18 34° NNE 23:10:53 10° E
Terra 1.8 23:01:11 15° SSE 23:05:09 89° W 23:09:57 10° NNW
Cosmos 2082 4.0 23:01:39 10° S 23:07:07 47° ESE 23:12:35 10° NE
Cosmos 1937 Rocket 3.4 23:03:10 10° SSW 23:08:24 80° ESE 23:13:37 10° NNE
Sich 1 3.8 23:04:14 10° SSW 23:08:34 54° WNW 23:12:53 10° N
CARTOSAT-1 3.6 23:05:24 16° S 23:08:52 78° WSW 23:13:13 10° NNW
Spot 4 3.9 23:05:42 16° SSE 23:09:31 81° ENE 23:14:25 10° NNW
Cosmos 2298 Rocket 4.4 23:05:32 10° SSW 23:10:50 66° WNW 23:16:09 10° NNE
Cosmos 1633 Rocket 3.8 23:08:10 10° SSW 23:12:27 52° WNW 23:16:44 10° N
ATLAS 3B R/B 2.8 23:05:35 10° NW 23:12:46 77° NE 23:18:29 15° SE
Cosmos 1626 2.2 23:10:26 18° S 23:13:08 63° E 23:16:52 10° NNE
Cosmos 1900 4.4 23:10:08 10° NW 23:15:10 75° NE 23:18:50 18° SE
Cosmos 990 Rocket 3.9 23:13:57 10° SSW 23:19:04 72° ESE 23:24:13 10° NNE
USA 238 DEB 4.3 23:15:27 10° NW 23:22:23 54° NE 23:29:15 10° ESE
USA 238 4.3 23:15:33 10° NW 23:22:28 54° NE 23:29:20 10° ESE
Tiangong 1 2.8 23:20:09 10° SW 23:21:28 17° SSW 23:21:28 17° SSW
FALCON 9 R/B 4.1 23:04:11 10° WSW 23:24:44 37° SSW 23:30:02 17° SE
NOSS 3-1 (C) 3.8 23:18:53 10° SW 23:24:54 73° NW 23:31:44 10° NE
Cosmos 1933 3.5 23:24:20 10° N 23:28:23 62° ENE 23:30:44 24° SSE
Cosmos 1269 Rocket 4.0 23:25:57 10° NNW 23:31:19 85° ENE 23:34:54 21° SSE
COSMOS 2455 2.9 23:26:04 10° NW 23:32:09 90° SW 23:36:29 20° SSE
H-2A R/B 2.8 23:29:19 14° S 23:33:46 49° W 23:39:05 10° NNW
H-2A R/B 4.5 23:32:18 10° NE 23:34:48 15° E 23:36:09 13° ESE
Cosmos 1869 Rocket 4.3 23:33:33 22° SE 23:35:51 39° E 23:40:02 10° NNE
Cosmos 389 Rocket 3.4 23:32:57 10° N 23:36:19 37° ENE 23:37:58 23° SE
Cosmos 2227 Rocket 2.2 23:35:33 10° SSW 23:41:13 85° ESE 23:46:56 10° NNE
CZ-4B R/B 3.4 23:44:29 15° ESE 23:46:13 20° ENE 23:48:48 10° NNE
Cosmos 1455 3.5 23:42:52 10° NNW 23:46:19 33° W 23:48:54 15° SSW
GEOS 3 Rocket 3.9 23:44:08 15° ESE 23:48:25 65° NE 23:53:34 10° NW
ALOS 2 3.7 23:46:38 18° ESE 23:49:16 34° ENE 23:53:13 10° N
Cosmos 2333 Rocket 3.3 23:46:16 10° NW 23:51:24 34° WSW 23:55:18 16° SSW
SL-16 R/B 2.2 23:46:29 10° NNW 23:52:11 78° WSW 23:55:45 24° SSE
SeaSat 1 2.5 23:49:07 22° SE 23:52:19 77° ENE 23:57:17 10° NNW
Cosmos 1048 Rocket 4.1 23:49:12 10° NNW 23:54:34 79° WSW 23:57:50 24° SSE
